This is the latest recevied weather packets stored in our database for station/object AI9F. If no packets are shown the sender has not sent any weather packets the latest 10 day(s).
| Time | Temp. | Humidity | Pressure | Rain* | Wind** | Luminosity | Snow |
|---|---|---|---|---|---|---|---|
| 1777163293 | 20.56° C | 46% | 1011.5 hPa | 0 mm | - | 8 W/m² | - |
| 1777162989 | 21.11° C | 46% | 1011.2 hPa | 0 mm | - | 11 W/m² | - |
| 1777162684 | 21.11° C | 45% | 1011.1 hPa | 0 mm | - | 15 W/m² | - |
| 1777162378 | 21.67° C | 46% | 1011 hPa | 0 mm | - | 18 W/m² | - |
| 1777162078 | 21.67° C | 45% | 1010.9 hPa | 0 mm | - | 21 W/m² | - |
| 1777161774 | 22.22° C | 47% | 1010.8 hPa | 0 mm | - | 24 W/m² | - |
| 1777161471 | 22.78° C | 44% | 1010.9 hPa | 0 mm | - | 28 W/m² | - |
| 1777161166 | 22.78° C | 45% | 1011.1 hPa | 0 mm | - | 43 W/m² | - |
| 1777160863 | 23.33° C | 42% | 1010.9 hPa | 0 mm | - | 50 W/m² | - |
| 1777160558 | 23.33° C | 44% | 1011 hPa | 0 mm | - | 56 W/m² | - |
| 1777160254 | 23.89° C | 44% | 1010.9 hPa | 0 mm | - | 66 W/m² | - |
| 1777159951 | 23.89° C | 44% | 1010.8 hPa | 0 mm | - | 72 W/m² | - |
| 1777159646 | 24.44° C | 44% | 1010.7 hPa | 0 mm | - | 81 W/m² | - |
| 1777159343 | 25° C | 43% | 1010.6 hPa | 0 mm | - | 89 W/m² | - |
| 1777159040 | 25° C | 42% | 1010.7 hPa | 0 mm | - | 96 W/m² | - |
| 1777158735 | 25.56° C | 41% | 1010.8 hPa | 0 mm | - | 108 W/m² | - |
| 1777158430 | 25.56° C | 40% | 1010.7 hPa | 0 mm | - | 119 W/m² | - |
| 1777158125 | 25.56° C | 38% | 1010.5 hPa | 0 mm | - | 131 W/m² | - |
| 1777157821 | 25.56° C | 38% | 1010.7 hPa | 0 mm | - | 145 W/m² | - |
| 1777157517 | 25.56° C | 38% | 1010.6 hPa | 0 mm | - | 161 W/m² | - |
| 1777157214 | 26.11° C | 38% | 1010.5 hPa | 0 mm | - | 177 W/m² | - |
| 1777156913 | 26.11° C | 38% | 1010.8 hPa | 0 mm | - | 194 W/m² | - |
| 1777156608 | 26.11° C | 38% | 1010.9 hPa | 0 mm | - | 213 W/m² | - |
| 1777156305 | 25.56° C | 40% | 1010.7 hPa | 0 mm | - | 231 W/m² | - |
| 1777156001 | 25.56° C | 39% | 1010.8 hPa | 0 mm | - | 245 W/m² | - |
* Rain latest hour (hover to see other rain measurements)
** Current wind speed in m/s (hover to see current wind gust speed)